User: anonymous   Login
Location: Unspecified
(0.0000°N, 0.0000°E)
Time: 21:33:22
(UTC+00:00)
Language:

Explorer 25 - Orbit

View from above orbital plane
View from above orbital plane
View from above satellite
View from above satellite

Ground track
Ground track

The orbit data is extracted from the following two-line orbital elements,

1   932U 64076B   18264.80429643 +.00000107 +00000-0 +32257-4 0  9995
2   932 081.3442 024.5553 1133246 172.9585 188.9093 12.63940199461923
Epoch (UTC): 21 September 2018 19:18:11
Eccentricity: 0.1133246
inclination: 81.3442°
perigee height: 524 km
apogee height: 2289 km
right ascension of ascending node: 24.5553°
argument of perigee: 172.9585°
revolutions per day: 12.63940199
mean anomaly at epoch: 188.9093°
orbit number at epoch: 46192

The dashed part of the orbit path shows where the satellite is in the earth's shadow,  

DLR